DELTA 1 DEB, 7042

Orbit data source: Space-Track

DELTA 1 DEB, 7042 is space debris in SSO originally from a launch on Tue, 06 Nov 1973 UTC launched from the Air Force Western Test Range (AFWTR). Debris objects in space refer to the collection of defunct objects orbiting the Earth. Examples of debris include non-operational satellites, rocket bodies, and fragments generated from explosions, collisions, or faulty payload assembly.

Loading next visibility...
Identifier
7042, 1973-086AJ
Orbit
SSO
Country
Flag of USUS
Related business
Manufacturer
Unknown
Mission
Spacecraft
Bus & Motor
Unknown
Mass
Unknown
Launch date (UTC)
1973-11-06 (52 years ago)
Launch vehicle
Unknown
Launch site
Air Force Western Test Range (AFWTR)
Object type
Payload
Rocket body
Debris
Shape & HBR
Unknown shape, 0.1 m
Radar Cross Section
Small (<0.1 m²)

Expand to show TLE details & history
Last TLE update: 19 hours ago

TLE from 19 hours ago
0 DELTA 1 DEB
1 07042U 73086AJ  25295.29122878  .00001544  00000-0  19138-2 0  9997
2 07042 101.7433 138.3865 0317519 261.1360  95.3697 13.47907333530189
Epoch: 2025-10-22T06:59Z
TLE epoch observation values (Epoch: 2025-10-22T06:59:22.166Z)
Latitude
-0°
Longitude
2.5772°
Altitude
1,112.257 km
Speed
7.282 km/s
True Right ascension
09h 13m 32s
True Declination
0° 00' 00"
Sunlit
Object was in daylight at epoch
Visualization orbit readout
Latitude
Unknown
Longitude
Unknown
Altitude
Unknown
Speed
Unknown
Apparent Right ascension
Unknown
Apparent Declination
Unknown
Sunlit
N/A
Visualization observer readout
Local Sidereal Time
21:11:42
Azimuth
Unknown
Elevation
Unknown
Doppler factor
Unknown
Orbital elements
Apogee altitude
1,314.11 km
Perigee altitude
840.657 km
Semi-major axis
7,455.52 km
Eccentricity
0.03175
Inclination
101.7433°
RAAN
138.3865°
Arg. of periapsis
261.136°
True anomaly
98.97644°
Mean anomaly
95.3697°
Eccentric anomaly
97.17471°
Mean motion
3.37152 °/min
Orbital period
106.78 mins
BSTAR
0.0019138
Loading maneuver chart data...
Computing Atmospheric mass density...
Loading historical data...
Loading historical data...
Loading historical data...
Loading historical data...
Loading historical data...
Loading historical data...
Loading historical data...

Documentation

Showing up to 5 results
|